FW8685 Weather Reports


time (UTC)temp
F
wind
direction
speed
knots
gust
knots
rain 1hr
in
rain 24hr
in
rain mn
in
humidity
%
barometer
mb
20260901070048 74 106 2.6 5.2 0.00 0.00 0.00 66 1012.5
20260901065525 74 113 2.6 5.2 0.00 0.00 0.00 66 1012.6
20260901065024 74 109 3.5 5.2 0.00 0.00 0.00 66 1012.7
20260901064551 75 105 2.6 5.2 0.00 0.00 0.00 65 1012.7
20260901064025 75 107 1.7 3.5 0.00 0.00 0.00 64 1012.8
20260901063524 75 104 1.7 3.5 0.00 0.00 0.00 65 1012.7
20260901063053 75 109 1.7 3.5 0.00 0.00 0.00 64 1012.7
20260901062524 75 119 1.7 3.5 0.00 0.00 0.00 63 1012.8
20260901062025 76 118 1.7 3.5 0.00 0.00 0.00 62 1012.7
20260901061545 76 111 1.7 3.5 0.00 0.00 0.00 62 1012.8
20260901061024 76 113 1.7 3.5 0.00 0.00 0.00 62 1012.8
20260901060527 76 114 2.6 3.5 0.00 0.00 0.00 61 1012.8
20260901060044 77 122 1.7 3.5 0.00 0.00 0.00 60 1012.7
20260901055522 77 119 2.6 5.2 0.00 0.00 0.00 60 1012.6
20260901055025 77 112 2.6 5.2 0.00 0.00 0.00 60 1012.6
20260901054545 77 120 2.6 5.2 0.00 0.00 0.00 60 1012.6
20260901054025 77 113 2.6 5.2 0.00 0.00 0.00 59 1012.4
20260901053525 78 111 2.6 5.2 0.00 0.00 0.00 59 1012.5
20260901053050 78 109 2.6 5.2 0.00 0.00 0.00 58 1012.5
20260901052527 78 108 2.6 5.2 0.00 0.00 0.00 58 1012.7
20260901052027 78 112 2.6 5.2 0.00 0.00 0.00 57 1012.6
20260901051541 78 119 2.6 5.2 0.00 0.00 0.00 57 1012.6
20260901051024 79 109 3.5 7.0 0.00 0.00 0.00 57 1012.4
20260901050529 79 98 3.5 7.0 0.00 0.00 0.00 56 1012.5
20260901050046 79 103 2.6 6.1 0.00 0.00 0.00 56 1012.5
20260901045524 79 101 3.5 6.1 0.00 0.00 0.00 56 1012.6
20260901045026 80 107 4.3 6.1 0.00 0.00 0.00 55 1012.7
20260901044546 80 104 4.3 6.1 0.00 0.00 0.00 55 1012.7
20260901044026 80 93 4.3 6.1 0.00 0.00 0.00 54 1012.7
20260901043524 80 108 3.5 6.1 0.00 0.00 0.00 54 1012.7
20260901043044 81 109 3.5 7.8 0.00 0.00 0.00 53 1012.6
20260901042525 81 106 3.5 7.8 0.00 0.00 0.00 53 1012.4
20260901042026 81 107 4.3 7.8 0.00 0.00 0.00 53 1012.4
20260901041549 81 104 5.2 8.7 0.00 0.00 0.00 53 1012.2
20260901041024 81 107 5.2 8.7 0.00 0.00 0.00 52 1012.3
20260901040525 82 111 5.2 7.8 0.00 0.00 0.00 52 1012.2
20260901040048 82 107 5.2 7.8 0.00 0.00 0.00 52 1012.2
20260901035525 82 107 5.2 8.7 0.00 0.00 0.00 51 1012.2
20260901035023 82 360 5.2 8.7 0.00 0.00 0.00 51 1012.0
20260901034547 83 117 6.1 8.7 0.00 0.00 0.00 50 1012.0
20260901034025 83 107 6.1 8.7 0.00 0.00 0.00 50 1011.9
20260901033525 83 104 5.2 9.6 0.00 0.00 0.00 50 1011.9
20260901033048 83 103 6.1 9.6 0.00 0.00 0.00 49 1011.9
20260901032528 83 104 5.2 9.6 0.00 0.00 0.00 49 1011.8
20260901032030 84 90 5.2 9.6 0.00 0.00 0.00 49 1011.8
20260901031542 84 101 5.2 9.6 0.00 0.00 0.00 49 1011.9
20260901031022 84 95 5.2 8.7 0.00 0.00 0.00 48 1011.8
20260901030525 84 98 5.2 8.7 0.00 0.00 0.00 48 1011.8
20260901030048 85 95 6.1 8.7 0.00 0.00 0.00 48 1011.7
20260901025526 85 97 5.2 7.8 0.00 0.00 0.00 48 1011.8
20260901025026 85 101 5.2 7.8 0.00 0.00 0.00 47 1011.8
20260901024546 85 107 5.2 7.8 0.00 0.00 0.00 47 1011.6
20260901024025 86 86 4.3 7.8 0.00 0.00 0.00 47 1011.5
20260901023524 86 98 5.2 7.8 0.00 0.00 0.00 46 1011.4
20260901023044 86 96 5.2 7.8 0.00 0.00 0.00 46 1011.3
20260901022524 86 111 5.2 7.8 0.00 0.00 0.00 46 1011.3
20260901022029 87 96 5.2 7.8 0.00 0.00 0.00 46 1011.2
20260901021550 87 93 4.3 8.7 0.00 0.00 0.00 45 1011.2
20260901021025 87 101 6.1 8.7 0.00 0.00 0.00 45 1011.0
20260901020525 87 95 5.2 8.7 0.00 0.00 0.00 45 1011.0
20260901020051 88 92 5.2 8.7 0.00 0.00 0.00 44 1010.9
20260901015525 88 94 4.3 7.8 0.00 0.00 0.00 44 1010.8
20260901015025 88 90 4.3 7.8 0.00 0.00 0.00 44 1010.9
20260901014547 89 105 5.2 7.8 0.00 0.00 0.00 43 1010.8
20260901014024 89 92 5.2 7.8 0.00 0.00 0.00 43 1010.8
20260901013525 90 100 4.3 7.8 0.00 0.00 0.00 42 1010.6
20260901013100 90 96 4.3 7.8 0.00 0.00 0.00 42 1010.6
20260901012525 90 107 5.2 7.8 0.00 0.00 0.00 41 1010.6
20260901012025 91 105 5.2 7.8 0.00 0.00 0.00 40 1010.6
20260901011545 91 93 5.2 7.0 0.00 0.00 0.00 40 1010.6
20260901011025 92 103 4.3 7.0 0.00 0.00 0.00 39 1010.6
20260901010526 92 103 4.3 7.8 0.00 0.00 0.00 39 1010.5
20260901010046 93 101 5.2 7.8 0.00 0.00 0.00 38 1010.4
20260901005526 93 95 5.2 8.7 0.00 0.00 0.00 38 1010.4
20260901005025 93 103 5.2 8.7 0.00 0.00 0.00 37 1010.4
20260901004549 94 100 4.3 7.8 0.00 0.00 0.00 37 1010.4
20260901004024 95 102 5.2 8.7 0.00 0.00 0.00 37 1010.3
20260901003525 95 98 5.2 8.7 0.00 0.00 0.00 36 1010.3
20260901003044 96 98 6.1 8.7 0.00 0.00 0.00 35 1010.2
20260901002525 96 103 5.2 9.6 0.00 0.00 0.00 35 1010.3
20260901002024 97 103 6.1 9.6 0.00 0.00 0.00 34 1010.3
20260901001546 97 99 6.1 9.6 0.00 0.00 0.00 33 1010.2
20260901001026 98 103 6.1 10.4 0.00 0.00 0.00 33 1010.2
20260901000528 98 113 7.0 10.4 0.00 0.00 0.00 32 1010.2
20260901000045 98 96 7.0 11.3 0.00 0.00 0.00 32 1010.3
20260831235525 98 104 7.8 11.3 0.00 0.00 0.00 31 1010.3
20260831235028 99 94 6.1 10.4 0.00 0.00 0.00 31 1010.3
20260831234550 99 104 7.0 14.8 0.00 0.00 0.00 30 1010.3
20260831234024 99 109 8.7 14.8 0.00 0.00 0.00 30 1010.2
20260831233526 99 102 8.7 13.0 0.00 0.00 0.00 30 1010.4
20260831233053 99 100 7.8 15.6 0.00 0.00 0.00 30 1010.3
20260831232527 100 93 9.6 15.6 0.00 0.00 0.00 30 1010.3
20260831232025 100 94 8.7 15.6 0.00 0.00 0.00 30 1010.3
20260831231544 100 98 7.0 14.8 0.00 0.00 0.00 30 1010.3
20260831231030 101 103 7.8 14.8 0.00 0.00 0.00 30 1010.4
20260831230525 101 113 9.6 15.6 0.00 0.00 0.00 30 1010.3
20260831230045 101 113 11.3 16.5 0.00 0.00 0.00 30 1010.4
20260831225525 101 113 9.6 16.5 0.00 0.00 0.00 30 1010.4
20260831225030 101 124 11.3 17.4 0.00 0.00 0.00 30 1010.5
20260831224546 101 110 11.3 17.4 0.00 0.00 0.00 30 1010.4
20260831224028 101 97 11.3 17.4 0.00 0.00 0.00 30 1010.4
20260831223526 101 112 12.2 17.4 0.00 0.00 0.00 29 1010.5
20260831223053 102 113 10.4 18.2 0.00 0.00 0.00 29 1010.4
20260831222525 102 95 11.3 18.2 0.00 0.00 0.00 29 1010.5
20260831222026 102 103 9.6 17.4 0.00 0.00 0.00 29 1010.6
20260831221544 103 112 9.6 14.8 0.00 0.00 0.00 29 1010.7
20260831221024 102 92 9.6 15.6 0.00 0.00 0.00 28 1010.6
20260831220522 102 113 10.4 15.6 0.00 0.00 0.00 28 1010.6
20260831220051 103 84 8.7 15.6 0.00 0.00 0.00 28 1010.6
20260831215527 103 88 8.7 12.2 0.00 0.00 0.00 28 1010.6
20260831215025 103 97 7.8 11.3 0.00 0.00 0.00 27 1010.6
20260831214558 103 117 7.0 15.6 0.00 0.00 0.00 27 1010.7
20260831214024 103 146 8.7 15.6 0.00 0.00 0.00 26 1010.7
20260831213525 103 128 9.6 19.1 0.00 0.00 0.00 27 1010.7
20260831213043 103 105 8.7 19.1 0.00 0.00 0.00 27 1010.7
20260831212818 104 107 12.2 18.2 0.00 0.00 0.00 27 1010.7
20260831212028 104 103 7.8 15.6 0.00 0.00 0.00 27 1010.8
20260831211545 104 144 9.6 15.6 0.00 0.00 0.00 25 1010.8
20260831211024 105 120 8.7 20.0 0.00 0.00 0.00 26 1010.8
20260831210525 104 115 11.3 20.0 0.00 0.00 0.00 26 1010.8
20260831210046 104 110 11.3 20.9 0.00 0.00 0.00 27 1010.8
20260831205525 104 97 14.8 20.9 0.00 0.00 0.00 26 1010.8
20260831205024 104 127 10.4 19.1 0.00 0.00 0.00 27 1010.8
20260831204549 103 110 11.3 19.1 0.00 0.00 0.00 28 1010.8
20260831204028 103 95 13.0 19.1 0.00 0.00 0.00 27 1010.9
20260831203523 103 111 10.4 19.1 0.00 0.00 0.00 27 1011.0
20260831203042 104 105 12.2 19.1 0.00 0.00 0.00 28 1011.0
20260831202527 104 130 10.4 18.2 0.00 0.00 0.00 27 1011.2
20260831202026 104 95 10.4 18.2 0.00 0.00 0.00 27 1011.2
20260831201551 104 134 7.0 17.4 0.00 0.00 0.00 27 1011.2
20260831201026 105 99 11.3 17.4 0.00 0.00 0.00 27 1011.3
20260831200525 104 114 10.4 16.5 0.00 0.00 0.00 28 1011.3
20260831200046 104 118 9.6 21.7 0.00 0.00 0.00 27 1011.3
20260831195524 104 110 9.6 21.7 0.00 0.00 0.00 27 1011.4
20260831195025 104 108 12.2 21.7 0.00 0.00 0.00 28 1011.5
20260831194546 104 117 11.3 18.2 0.00 0.00 0.00 28 1011.5
20260831194024 104 128 9.6 20.0 0.00 0.00 0.00 28 1011.5
20260831193526 104 114 12.2 20.0 0.00 0.00 0.00 29 1011.8
20260831193118 103 128 9.6 20.0 0.00 0.00 0.00 30 1011.7
20260831192524 103 157 10.4 20.0 0.00 0.00 0.00 29 1011.8
20260831192027 103 134 5.2 15.6 0.00 0.00 0.00 30 1011.8
20260831191545 103 118 9.6 20.0 0.00 0.00 0.00 29 1011.8
20260831191024 103 101 12.2 20.0 0.00 0.00 0.00 30 1011.9
20260831190527 103 170 6.1 18.2 0.00 0.00 0.00 30 1011.8
20260831190048 103 133 10.4 19.1 0.00 0.00 0.00 30 1012.0
20260831185525 103 122 9.6 19.1 0.00 0.00 0.00 29 1011.9
20260831185023 104 130 9.6 19.1 0.00 0.00 0.00 30 1012.0
20260831184550 103 96 10.4 19.1 0.00 0.00 0.00 31 1011.9
20260831184025 103 141 11.3 19.1 0.00 0.00 0.00 31 1012.0
20260831183525 102 165 9.6 16.5 0.00 0.00 0.00 31 1011.9
20260831183053 103 140 7.8 20.0 0.00 0.00 0.00 31 1012.0
20260831182527 103 144 9.6 20.0 0.00 0.00 0.00 31 1012.1
20260831182025 102 125 8.7 17.4 0.00 0.00 0.00 31 1012.1
20260831181557 103 107 8.7 15.6 0.00 0.00 0.00 33 1012.2
20260831181024 102 123 8.7 19.1 0.00 0.00 0.00 34 1012.3
20260831180525 101 101 9.6 20.0 0.00 0.00 0.00 35 1012.4
20260831180046 101 123 9.6 20.0 0.00 0.00 0.00 34 1012.4
20260831175524 100 183 7.8 18.2 0.00 0.00 0.00 35 1012.5
20260831175024 101 160 8.7 18.2 0.00 0.00 0.00 34 1012.7
20260831174548 101 135 10.4 16.5 0.00 0.00 0.00 35 1012.7
20260831174024 99 155 7.8 18.2 0.00 0.00 0.00 36 1012.8
20260831173525 99 163 7.8 19.1 0.00 0.00 0.00 36 1012.9
20260831173047 99 113 9.6 19.1 0.00 0.00 0.00 35 1012.9
20260831172524 99 123 9.6 17.4 0.00 0.00 0.00 37 1013.0
20260831172025 98 108 7.0 17.4 0.00 0.00 0.00 38 1013.0
20260831171544 98 121 9.6 17.4 0.00 0.00 0.00 37 1013.1
20260831171025 98 123 7.8 15.6 0.00 0.00 0.00 37 1013.0
20260831170524 97 150 11.3 15.6 0.00 0.00 0.00 37 1013.2
20260831170043 97 140 7.0 14.8 0.00 0.00 0.00 38 1013.1
20260831165525 97 113 7.8 17.4 0.00 0.00 0.00 39 1013.2
20260831165025 97 170 9.6 17.4 0.00 0.00 0.00 38 1013.2
20260831164605 96 138 9.6 17.4 0.00 0.00 0.00 38 1013.2
20260831164024 96 132 9.6 18.2 0.00 0.00 0.00 39 1013.2
20260831163525 96 111 10.4 18.2 0.00 0.00 0.00 39 1013.2
20260831163048 96 123 7.8 16.5 0.00 0.00 0.00 40 1013.3
20260831162523 95 139 11.3 16.5 0.00 0.00 0.00 40 1013.3
20260831162024 96 113 7.8 15.6 0.00 0.00 0.00 40 1013.3
20260831161600 95 165 7.0 15.6 0.00 0.00 0.00 40 1013.4
20260831161023 95 138 9.6 15.6 0.00 0.00 0.00 41 1013.4
20260831160526 95 126 9.6 14.8 0.00 0.00 0.00 41 1013.5
20260831160056 94 121 8.7 14.8 0.00 0.00 0.00 41 1013.5
20260831155524 94 130 9.6 14.8 0.00 0.00 0.00 42 1013.4
20260831155026 94 119 7.0 14.8 0.00 0.00 0.00 42 1013.5
20260831154613 93 126 7.0 15.6 0.00 0.00 0.00 43 1013.4
20260831154029 93 116 9.6 15.6 0.00 0.00 0.00 42 1013.4
20260831153525 93 140 7.0 15.6 0.00 0.00 0.00 43 1013.3
20260831153046 93 123 7.8 15.6 0.00 0.00 0.00 43 1013.3
20260831152528 93 167 8.7 14.8 0.00 0.00 0.00 43 1013.4
20260831152025 92 154 5.2 13.0 0.00 0.00 0.00 44 1013.4
20260831151546 92 132 7.0 13.0 0.00 0.00 0.00 44 1013.3
20260831151025 91 128 7.0 13.0 0.00 0.00 0.00 45 1013.4
20260831150524 91 132 6.1 14.8 0.00 0.00 0.00 45 1013.4
20260831150050 90 145 6.1 14.8 0.00 0.00 0.00 46 1013.4
20260831145524 90 131 7.0 13.9 0.00 0.00 0.00 46 1013.3
20260831145024 89 164 5.2 13.9 0.00 0.00 0.00 47 1013.3
20260831144544 89 143 7.0 13.0 0.00 0.00 0.00 48 1013.4
20260831144024 88 139 7.8 13.0 0.00 0.00 0.00 48 1013.4
20260831143523 87 127 5.2 10.4 0.00 0.00 0.00 50 1013.4
20260831143044 86 125 6.1 9.6 0.00 0.00 0.00 50 1013.4
20260831142527 86 149 5.2 9.6 0.00 0.00 0.00 51 1013.4
20260831142025 85 161 5.2 9.6 0.00 0.00 0.00 52 1013.4
20260831141550 85 150 4.3 10.4 0.00 0.00 0.00 53 1013.4
20260831141024 84 115 7.0 10.4 0.00 0.00 0.00 54 1013.2
20260831140525 83 120 6.1 10.4 0.00 0.00 0.00 55 1013.3
20260831140045 83 134 6.1 11.3 0.00 0.00 0.00 56 1013.3
20260831135525 82 136 7.8 11.3 0.00 0.00 0.00 57 1013.3
20260831135028 81 125 5.2 8.7 0.00 0.00 0.00 58 1013.3
20260831134548 80 117 6.1 11.3 0.00 0.00 0.00 60 1013.4
20260831134025 80 120 6.1 13.9 0.00 0.00 0.00 61 1013.3
20260831133522 79 107 8.7 13.9 0.00 0.00 0.00 61 1013.3
20260831133047 78 112 8.7 11.3 0.00 0.00 0.00 62 1013.2
20260831132524 78 103 6.1 10.4 0.00 0.00 0.00 63 1013.1
20260831132025 77 111 7.0 10.4 0.00 0.00 0.00 64 1013.2
20260831131557 76 105 5.2 8.7 0.00 0.00 0.00 65 1013.2
20260831131025 76 119 5.2 8.7 0.00 0.00 0.00 66 1013.2
20260831130525 75 124 6.1 9.6 0.00 0.00 0.00 67 1013.0
20260831130047 75 117 6.1 9.6 0.00 0.00 0.00 69 1013.1
20260831125527 74 111 5.2 8.7 0.00 0.00 0.00 70 1013.0
20260831125025 73 111 6.1 8.7 0.00 0.00 0.00 72 1012.9
20260831124545 72 111 6.1 8.7 0.00 0.00 0.00 73 1012.8
20260831124023 72 98 5.2 7.8 0.00 0.00 0.00 74 1012.7
20260831123526 71 114 3.5 6.1 0.00 0.00 0.00 74 1012.7
20260831123046 71 107 2.6 6.1 0.00 0.00 0.00 74 1012.7
20260831122529 71 97 3.5 5.2 0.00 0.00 0.00 73 1012.8
20260831122024 71 116 2.6 5.2 0.00 0.00 0.00 73 1012.8
20260831121550 71 125 2.6 5.2 0.00 0.00 0.00 73 1012.8
20260831121029 71 107 2.6 3.5 0.00 0.00 0.00 73 1012.8
20260831120528 71 104 1.7 3.5 0.00 0.00 0.00 73 1012.9
20260831120048 71 103 1.7 3.5 0.00 0.00 0.00 73 1012.8
20260831115526 72 98 1.7 5.2 0.00 0.00 0.00 73 1012.7
20260831115024 72 93 2.6 5.2 0.00 0.00 0.00 73 1012.7
20260831114547 72 92 0.9 3.5 0.00 0.00 0.00 72 1012.6
20260831114025 72 0 0.0 0.0 0.00 0.00 0.00 71 1012.7
20260831113524 72 0 0.0 0.0 0.00 0.00 0.00 71 1012.5
20260831113049 72 0 0.0 0.9 0.00 0.00 0.00 70 1012.5
20260831112526 72 0 0.0 1.7 0.00 0.00 0.00 70 1012.3
20260831112024 72 109 0.0 2.6 0.00 0.00 0.00 70 1012.4
20260831111551 72 109 0.9 2.6 0.00 0.00 0.00 70 1012.3
20260831111024 73 109 0.9 2.6 0.00 0.00 0.00 69 1012.3
20260831110524 73 109 1.7 2.6 0.00 0.00 0.00 69 1012.2
20260831110046 73 109 0.9 3.5 0.00 0.00 0.00 68 1012.2
20260831105525 73 109 1.7 3.5 0.00 0.00 0.00 68 1012.0
20260831105026 73 110 1.7 3.5 0.00 0.00 0.00 67 1012.0
20260831104551 73 119 1.7 3.5 0.00 0.00 0.00 67 1012.0
20260831104026 74 113 2.6 5.2 0.00 0.00 0.00 67 1011.8
20260831103524 74 123 1.7 5.2 0.00 0.00 0.00 66 1011.8
20260831103050 74 105 2.6 5.2 0.00 0.00 0.00 66 1011.7
20260831102524 74 111 2.6 3.5 0.00 0.00 0.00 65 1011.7
20260831102025 75 109 1.7 3.5 0.00 0.00 0.00 65 1011.8
20260831101546 75 105 1.7 3.5 0.00 0.00 0.00 65 1011.7
20260831101023 75 107 1.7 3.5 0.00 0.00 0.00 65 1011.7
20260831100525 75 108 1.7 3.5 0.00 0.00 0.00 64 1011.7
20260831100100 75 106 2.6 3.5 0.00 0.00 0.00 64 1011.7
20260831095525 76 109 2.6 3.5 0.00 0.00 0.00 63 1011.4
20260831095026 76 115 2.6 5.2 0.00 0.00 0.00 63 1011.3
20260831094548 76 116 2.6 5.2 0.00 0.00 0.00 62 1011.3
20260831094024 76 117 2.6 5.2 0.00 0.00 0.00 62 1011.5
20260831093525 77 108 3.5 5.2 0.00 0.00 0.00 62 1011.3
20260831093056 77 112 2.6 5.2 0.00 0.00 0.00 61 1011.2
20260831092523 77 115 2.6 4.3 0.00 0.00 0.00 61 1011.2
20260831092022 77 145 2.6 6.1 0.00 0.00 0.00 61 1011.3
20260831091541 77 138 2.6 6.1 0.00 0.00 0.00 60 1011.1
20260831091029 78 122 1.7 6.1 0.00 0.00 0.00 60 1011.0
20260831090523 78 126 2.6 7.0 0.00 0.00 0.00 60 1011.0
20260831090056 78 125 2.6 7.0 0.00 0.00 0.00 60 1011.2
20260831085525 78 126 3.5 7.0 0.00 0.00 0.00 59 1011.0
20260831085024 78 110 3.5 7.0 0.00 0.00 0.00 59 1010.8
20260831084545 78 130 2.6 7.8 0.00 0.00 0.00 59 1010.8
20260831084025 78 122 4.3 7.8 0.00 0.00 0.00 59 1010.9
20260831083525 79 135 4.3 7.8 0.00 0.00 0.00 59 1010.7
20260831083102 79 149 4.3 7.8 0.00 0.00 0.00 58 1010.7
20260831082525 79 108 4.3 8.7 0.00 0.00 0.00 58 1010.5
20260831082025 79 127 4.3 8.7 0.00 0.00 0.00 58 1010.7
20260831081555 79 134 4.3 7.8 0.00 0.00 0.00 58 1010.7
20260831081027 79 121 5.2 7.8 0.00 0.00 0.00 57 1010.6
20260831080525 80 130 5.2 10.4 0.00 0.00 0.00 57 1010.6
20260831080120 80 114 5.2 10.4 0.00 0.00 0.00 57 1010.5
20260831075528 80 111 5.2 10.4 0.00 0.00 0.00 56 1010.7
20260831075026 80 120 5.2 8.7 0.00 0.00 0.00 56 1010.7
20260831074547 81 113 5.2 8.7 0.00 0.00 0.00 56 1010.8
20260831074024 81 121 5.2 7.8 0.00 0.00 0.00 55 1010.8
20260831073524 81 110 5.2 10.4 0.00 0.00 0.00 55 1010.8
20260831073045 81 103 5.2 10.4 0.00 0.00 0.00 54 1010.8
20260831072527 81 125 6.1 10.4 0.00 0.00 0.00 54 1010.9
20260831072025 82 117 6.1 10.4 0.00 0.00 0.00 54 1010.8
20260831071548 82 137 4.3 10.4 0.00 0.00 0.00 54 1011.0
20260831071025 82 140 4.3 9.6 0.00 0.00 0.00 53 1010.9
20260831070524 82 144 4.3 9.6 0.00 0.00 0.00 53 1010.8